Tampa Macdill AFB, FL

12:52 AM EDT on October 21, 2017 (GMT -0400)
MacDill Air Force Base

Weather History for KMCF - February, 2014

Change the Weather History Date:

Thursday, February 27, 2014

  Actual Average Record
Temperature  
Mean Temperature 59 °F -  
Max Temperature 65 °F 73 °F 87 °F (2012)
Min Temperature 52 °F 55 °F 41 °F (2016)
Degree Days  
Heating Degree Days 6    
Growing Degree Days 9 (Base 50)    
Moisture  
Dew Point 55 °F    
Average Humidity 90    
Maximum Humidity 100    
Minimum Humidity 66    
Precipitation  
Precipitation 0.00 in - - ()
Sea Level Pressure  
Sea Level Pressure 29.90 in    
Wind  
Wind Speed 8 mph (North)    
Max Wind Speed 16 mph    
Max Gust Speed 22 mph    
Visibility 10 miles    
Events Rain    
Averages and records for this station are not official NWS values.
T = Trace of Precipitation, MM = Missing Value Source: NWS Daily Summary

Daily Weather History Graph

Daily Weather History Graph

Search for Another Location

Airport or City:

Trip Planner

Search our weather history database for the weather conditions in past years. The results will help you decide how hot, cold, wet, or windy it might be!

Date:

Astronomy

Feb. 27, 2014 Rise Set
Actual Time 6:56 AM EST 6:29 PM EST
Civil Twilight 6:33 AM EST 6:52 PM EST
Nautical Twilight 6:05 AM EST 7:20 PM EST
Astronomical Twilight 5:38 AM EST 7:47 PM EST
Moon 5:21 AM EST (2/27) 4:57 PM EST (2/27)
Length of Visible Light 12h 19m
Length of Day
11h 32m
Waning Crescent, 4% of the Moon is Illuminated
Feb 27
Waning Crescent
Mar 1
New
Mar 8
First Quarter
Mar 16
Full
Mar 23
Last Quarter

Hourly Weather History & Observations

Time (EST) Temp. Dew Point Humidity Pressure Visibility Wind Dir Wind Speed Gust Speed Precip Events Conditions
12:58 AM 65.3 °F 65.3 °F 100% 29.82 in 10.0 mi NW 8.1 mph - N/A   Partly Cloudy
1:38 AM 64.4 °F 64.4 °F 100% 29.81 in 10.0 mi NNW 8.1 mph - N/A   Mostly Cloudy
1:48 AM 64.4 °F 64.4 °F 100% 29.81 in 10.0 mi Variable 6.9 mph - N/A   Scattered Clouds
1:58 AM 64.0 °F 64.0 °F 100% 29.81 in 10.0 mi NNW 10.4 mph - N/A   Scattered Clouds
2:28 AM 64.4 °F 64.4 °F 100% 29.82 in 10.0 mi NNW 13.8 mph 21.9 mph N/A   Mostly Cloudy
2:48 AM 62.6 °F 62.6 °F 100% 29.82 in 10.0 mi NNW 11.5 mph 19.6 mph N/A   Overcast
2:58 AM 62.6 °F 62.6 °F 100% 29.83 in 10.0 mi North 16.1 mph 18.4 mph N/A   Overcast
3:48 AM 60.8 °F 60.8 °F 100% 29.83 in 10.0 mi North 9.2 mph - N/A   Overcast
3:58 AM 61.2 °F 60.8 °F 99% 29.84 in 10.0 mi North 8.1 mph 16.1 mph N/A   Overcast
4:33 AM 60.8 °F 60.8 °F 100% 29.84 in 10.0 mi NNE 9.2 mph 16.1 mph N/A   Overcast
4:43 AM 60.8 °F 60.8 °F 100% 29.84 in 10.0 mi North 10.4 mph 16.1 mph N/A   Overcast
4:58 AM 60.3 °F 59.9 °F 99% 29.85 in 10.0 mi North 10.4 mph - N/A   Overcast
5:43 AM 59.0 °F 59.0 °F 100% 29.85 in 10.0 mi NNE 5.8 mph - N/A   Overcast
5:53 AM 59.0 °F 59.0 °F 100% 29.85 in 10.0 mi NE 8.1 mph - N/A Rain Light Rain
5:58 AM 58.8 °F 58.5 °F 99% 29.86 in 10.0 mi NE 8.1 mph - 0.00 in Rain Light Rain
6:03 AM 59.0 °F 59.0 °F 100% 29.84 in 10.0 mi ENE 9.2 mph - N/A Rain Light Rain
6:06 AM 59.0 °F 57.2 °F 94% 29.84 in 10.0 mi NE 8.1 mph - N/A   Overcast
6:16 AM 57.2 °F 57.2 °F 100% 29.85 in 10.0 mi NNE 8.1 mph - N/A   Overcast
6:26 AM 57.2 °F 57.2 °F 100% 29.86 in 10.0 mi NNE 6.9 mph - N/A   Overcast
6:51 AM 57.2 °F 57.2 °F 100% 29.86 in 10.0 mi NE 5.8 mph - N/A   Overcast
6:58 AM 57.6 °F 57.2 °F 99% 29.88 in 10.0 mi NNE 5.8 mph - 0.00 in   Overcast
7:28 AM 57.2 °F 57.2 °F 100% 29.89 in 10.0 mi NE 3.5 mph - N/A   Overcast
7:58 AM 58.3 °F 57.9 °F 99% 29.92 in 10.0 mi North 1.2 mph - N/A   Overcast
8:43 AM 59.0 °F 57.2 °F 94% 29.94 in 10.0 mi North 5.8 mph - N/A   Mostly Cloudy
8:53 AM 59.0 °F 57.2 °F 94% 29.94 in 10.0 mi North 5.8 mph - N/A   Mostly Cloudy
8:58 AM 58.8 °F 57.4 °F 95% 29.95 in 10.0 mi NNE 5.8 mph - N/A   Mostly Cloudy
9:43 AM 59.0 °F 57.2 °F 94% 29.93 in 10.0 mi North 6.9 mph - N/A   Mostly Cloudy
9:58 AM 59.0 °F 57.2 °F 94% 29.96 in 10.0 mi North 9.2 mph - N/A   Mostly Cloudy
10:58 AM 58.8 °F 54.5 °F 86% 29.96 in 10.0 mi North 6.9 mph - N/A   Mostly Cloudy
11:28 AM 59.0 °F 53.6 °F 82% 29.95 in 10.0 mi Variable 6.9 mph - N/A   Mostly Cloudy
11:33 AM 59.0 °F 53.6 °F 82% 29.95 in 10.0 mi North 9.2 mph - N/A   Mostly Cloudy
11:58 AM 59.5 °F 53.2 °F 80% 29.96 in 10.0 mi Variable 6.9 mph - N/A   Scattered Clouds
12:58 PM 59.4 °F 51.8 °F 76% 29.95 in 10.0 mi NNW 6.9 mph - N/A   Mostly Cloudy
1:58 PM 61.7 °F 50.2 °F 66% 29.93 in 10.0 mi NW 9.2 mph - N/A   Partly Cloudy
2:58 PM 59.0 °F 47.5 °F 66% 29.93 in 10.0 mi Variable 6.9 mph - N/A   Mostly Cloudy
3:58 PM 58.1 °F 47.7 °F 68% 29.92 in 10.0 mi NNW 5.8 mph - N/A   Scattered Clouds
4:58 PM 57.2 °F 48.2 °F 72% 29.92 in 10.0 mi Variable 2.3 mph - 0.00 in   Clear
5:58 PM 55.9 °F 47.5 °F 73% 29.96 in 10.0 mi NW 8.1 mph - N/A   Partly Cloudy
6:24 PM 55.4 °F 46.4 °F 72% 29.97 in 10.0 mi NW 9.2 mph - N/A Rain Light Rain
6:58 PM 54.3 °F 47.7 °F 78% 29.96 in 10.0 mi NW 5.8 mph - 0.00 in   Light Drizzle
7:03 PM 53.6 °F 48.2 °F 82% 29.95 in 10.0 mi NW 8.1 mph - N/A   Clear
7:58 PM 54.1 °F 48.2 °F 80% 29.97 in 10.0 mi NNW 5.8 mph - 0.00 in   Light Drizzle
8:01 PM 53.6 °F 48.2 °F 82% 29.96 in 10.0 mi NNW 4.6 mph - N/A   Clear
8:58 PM 54.0 °F 47.7 °F 79% 29.99 in 10.0 mi Variable 4.6 mph - 0.00 in   Light Drizzle
9:03 PM 53.6 °F 48.2 °F 82% 29.96 in 10.0 mi North 4.6 mph - N/A   Clear
9:58 PM 53.1 °F 46.8 °F 79% 29.97 in 10.0 mi NE 4.6 mph - 0.00 in   Mostly Cloudy
10:58 PM 53.8 °F 46.2 °F 76% 29.96 in 10.0 mi East 5.8 mph - N/A   Clear
11:58 PM 52.5 °F 45.3 °F 76% 29.99 in 10.0 mi ENE 3.5 mph - N/A   Mostly Cloudy